Location: Newark
(42.8481°N, 0.4872°E)
Time: 18:25:29
(UTC+00:00)

Vanguard 3 - Pass Details

Date: 05 November 2020
Orbit: 508 x 3262 km, 33.3° (Epoch: 24 November)

Event Time Altitude Azimuth Distance (km) Brightness Sun altitude
Rises 10:15:47 0° 280° (W) 7,117 11.7 28.0°
Reaches altitude 10° 10:21:52 10° 269° (W) 6,196 11.5 28.5°
Maximum altitude 10:35:41 25° 225° (SW) 4,827 11.6 29.3°
Drops below altitude 10° 10:47:38 10° 178° (S) 5,261 12.8 30.0°
Sets 10:52:18 0° 166° (SSE) 5,871 12.7 30.2°
